EDT,Max TemperatureF,Mean TemperatureF,Min TemperatureF,Max Dew PointF,MeanDew PointF,Min DewpointF,Max Humidity, Mean Humidity, Min Humidity, Max Sea Level PressureIn, Mean Sea Level PressureIn, Min Sea Level PressureIn, Max VisibilityMiles, Mean VisibilityMiles, Min VisibilityMiles, Max Wind SpeedMPH, Mean Wind SpeedMPH, Max Gust SpeedMPH,PrecipitationIn, CloudCover, Events, WindDirDegrees
2013-10-1,72,58,43,52,47,44,100,71,41,29.97,29.88,29.79,10,10,10,12,2,12,0.00,0,,11
2013-10-2,74,58,42,57,48,42,100,71,41,29.79,29.72,29.64,10,10,7,20,5,32,0.00,1,,243
2013-10-3,68,56,43,45,42,38,86,60,34,29.99,29.91,29.80,10,10,10,21,7,32,0.00,0,,263
2013-10-4,62,47,32,41,36,29,100,65,29,30.09,30.03,29.97,10,10,10,17,5,28,0.00,0,,310
2013-10-5,59,45,30,39,35,29,100,70,40,30.19,30.12,30.06,10,10,10,10,3,15,0.00,2,,334
2013-10-6,58,44,29,38,32,28,100,68,35,30.30,30.25,30.21,10,10,10,8,2,13,T,1,,172
2013-10-7,67,55,42,64,52,39,100,86,71,30.22,29.98,29.71,10,6,1,21,10,36,0.27,8,Rain,173
2013-10-8,58,45,32,64,44,33,100,72,43,30.35,29.99,29.71,10,8,2,20,7,31,0.58,4,Rain,273
2013-10-9,62,46,29,42,36,28,100,70,39,30.46,30.38,30.31,10,10,10,10,3,14,0.00,0,,221
2013-10-10,68,53,38,46,42,36,96,68,39,30.30,30.23,30.17,10,10,10,12,5,16,0.00,0,,200
2013-10-11,71,54,36,54,46,35,93,71,49,30.25,30.18,30.14,10,10,10,10,3,,0.00,1,,21
2013-10-12,57,45,33,45,41,35,100,79,57,30.43,30.38,30.31,10,10,10,12,3,16,0.00,4,,120
2013-10-13,63,46,29,44,36,28,100,73,46,30.46,30.42,30.33,10,8,0,9,2,10,0.00,2,Fog,216
2013-10-14,54,47,40,51,46,40,100,92,83,30.33,30.28,30.20,10,5,0,10,5,14,T,7,Fog-Rain,208
2013-10-15,63,51,38,51,45,37,93,71,48,30.29,30.24,30.20,10,10,9,9,2,,0.00,3,,330
2013-10-16,58,50,41,53,49,40,100,86,72,30.22,30.08,29.90,10,9,2,15,5,21,0.00,8,,158
2013-10-17,63,52,40,54,51,41,100,81,62,29.88,29.78,29.70,10,6,0,10,4,15,0.01,7,Fog,201
2013-10-18,56,47,38,52,48,40,100,90,80,29.72,29.62,29.57,10,7,1,10,4,16,0.44,7,Rain,314
2013-10-19,60,51,42,42,40,37,92,70,47,29.84,29.79,29.71,10,10,10,20,7,29,0.00,1,,249
2013-10-20,57,49,40,49,41,27,93,64,35,29.81,29.68,29.61,10,9,1,18,8,28,0.11,6,Rain,217
2013-10-21,55,45,35,36,32,30,92,68,44,30.00,29.94,29.82,10,10,10,16,6,22,0.00,2,,262
2013-10-22,58,49,40,52,46,34,93,77,60,29.95,29.74,29.63,10,8,2,23,7,37,0.47,7,Rain,201
2013-10-23,48,39,29,37,32,28,100,80,60,29.72,29.67,29.58,10,7,0,13,2,14,0.00,2,Fog,215
2013-10-24,43,35,26,31,26,22,100,73,45,29.65,29.58,29.54,10,10,9,21,8,31,0.00,5,,236
2013-10-25,48,40,32,31,29,27,82,66,49,29.97,29.84,29.67,10,10,10,20,8,25,0.00,5,,255
2013-10-26,43,34,24,36,30,23,92,69,45,30.02,29.93,29.82,10,10,7,14,6,18,0.06,4,Rain,199
2013-10-27,47,41,35,39,36,31,92,79,65,29.86,29.79,29.73,10,10,10,13,5,17,T,6,Rain,221
2013-10-28,45,36,26,36,30,23,92,74,55,30.28,30.02,29.87,10,10,5,25,7,83,0.02,3,Rain,269
2013-10-29,38,28,17,26,21,17,92,72,52,30.40,30.36,30.29,10,10,9,15,3,18,0.00,2,,295
2013-10-30,42,29,15,25,19,15,92,65,38,30.32,30.21,30.11,10,10,10,14,2,17,0.00,1,,220
2013-10-31,55,39,22,53,32,21,100,78,55,30.20,30.04,29.70,10,9,5,17,7,28,0.41,4,Rain,196